RYR150 EPRZ-EPMO

Flight info

Callsign RYR150
Flight time 0h 48m
Altitude 23000
Route VELAX Q258 UREKO/N0381F180 L621 LIMVI
Aircraft B738/M-SDE2E3FGHIRWXY/LB1

Departure

Time 2026-04-21 18:51
Airport Rzeszów-Jasionka Airport (EPRZ)

Arrival

Time 2026-04-21 19:39
Airport Warsaw Modlin Airport (EPMO)
Time Latitude Longitude Altitude Speed Heading
2026-04-21 18:19 50.11413 22.02534 690 ft 0 kts
2026-04-21 18:33 50.11401 22.02534 682 ft 1 kts
2026-04-21 18:33 50.11386 22.02534 684 ft 2 kts
2026-04-21 18:33 50.11370 22.02533 682 ft 2 kts
2026-04-21 18:33 50.11353 22.02531 683 ft 2 kts
2026-04-21 18:34 50.11337 22.02527 684 ft 2 kts 17°
2026-04-21 18:34 50.11324 22.02513 686 ft 2 kts 81°
2026-04-21 18:34 50.11323 22.02502 688 ft 0 kts 91°
2026-04-21 18:41 50.11323 22.02513 690 ft 3 kts 91°
2026-04-21 18:42 50.11322 22.02577 688 ft 9 kts 91°
2026-04-21 18:42 50.11316 22.02697 686 ft 12 kts 109°
2026-04-21 18:42 50.11243 22.02743 688 ft 12 kts 180°
2026-04-21 18:42 50.11159 22.02741 686 ft 12 kts 181°
2026-04-21 18:43 50.11113 22.02740 690 ft 0 kts 181°
2026-04-21 18:44 50.11097 22.02740 688 ft 4 kts 181°
2026-04-21 18:45 50.11061 22.02738 693 ft 7 kts 181°
2026-04-21 18:45 50.11002 22.02721 692 ft 11 kts 213°
2026-04-21 18:45 50.10987 22.02675 691 ft 3 kts 266°
2026-04-21 18:45 50.10987 22.02669 691 ft 0 kts 269°
2026-04-21 18:50 50.10989 22.02492 695 ft 51 kts 271°
2026-04-21 18:50 50.11002 22.01541 703 ft 122 kts 271°
2026-04-21 18:50 50.11030 21.99957 927 ft 159 kts 272°
2026-04-21 18:51 50.11070 21.98191 1667 ft 168 kts 275°
2026-04-21 18:51 50.11122 21.96323 2447 ft 175 kts 276°
2026-04-21 18:51 50.11149 21.94444 3333 ft 173 kts 275°
2026-04-21 18:51 50.11186 21.92417 3727 ft 203 kts 275°
2026-04-21 18:52 50.11352 21.90122 4006 ft 222 kts 294°
2026-04-21 18:52 50.12216 21.88139 4674 ft 224 kts 320°
2026-04-21 18:52 50.13565 21.86881 5357 ft 230 kts 348°
2026-04-21 18:52 50.15145 21.86649 5902 ft 233 kts
2026-04-21 18:53 50.16771 21.86686 5978 ft 233 kts
2026-04-21 18:53 50.18387 21.86863 5987 ft 234 kts 14°
2026-04-21 18:53 50.19839 21.88009 6016 ft 242 kts 39°
2026-04-21 18:53 50.20988 21.90060 6013 ft 258 kts 52°
2026-04-21 18:54 50.22035 21.92372 6014 ft 261 kts 52°
2026-04-21 18:54 50.23085 21.94676 5995 ft 259 kts 52°
2026-04-21 18:54 50.24124 21.96958 5992 ft 257 kts 52°
2026-04-21 18:54 50.25157 21.99231 5991 ft 256 kts 52°
2026-04-21 18:55 50.25840 22.00735 5994 ft 256 kts 52°
2026-04-21 18:55 50.27216 22.03769 6001 ft 256 kts 52°
2026-04-21 18:55 50.28251 22.06052 6042 ft 260 kts 52°
2026-04-21 18:55 50.29287 22.08342 6542 ft 257 kts 52°
2026-04-21 18:56 50.30320 22.10627 7316 ft 254 kts 52°
2026-04-21 18:56 50.31332 22.12868 8300 ft 251 kts 52°
2026-04-21 18:56 50.32332 22.15085 9306 ft 246 kts 52°
2026-04-21 18:56 50.33305 22.17245 10290 ft 240 kts 52°
2026-04-21 18:57 50.34260 22.19366 11117 ft 241 kts 53°
2026-04-21 18:57 50.35263 22.21588 11349 ft 266 kts 53°
2026-04-21 18:57 50.36382 22.24068 11581 ft 291 kts 53°
2026-04-21 18:57 50.37597 22.26768 11796 ft 315 kts 53°
2026-04-21 18:58 50.38885 22.29639 12326 ft 326 kts 53°
2026-04-21 18:58 50.40195 22.32564 13106 ft 330 kts 53°
2026-04-21 18:58 50.41517 22.35522 13992 ft 332 kts 53°
2026-04-21 18:58 50.42847 22.38499 14766 ft 335 kts 53°
2026-04-21 18:59 50.44189 22.41504 15539 ft 338 kts 53°
2026-04-21 18:59 50.45548 22.44548 16327 ft 342 kts 53°
2026-04-21 18:59 50.46916 22.47617 17136 ft 344 kts 53°
2026-04-21 18:59 50.48290 22.50672 18138 ft 340 kts 51°
2026-04-21 19:00 50.49850 22.53423 19067 ft 335 kts 41°
2026-04-21 19:00 50.51595 22.55774 19906 ft 333 kts 39°
2026-04-21 19:00 50.53379 22.58102 20717 ft 333 kts 39°
2026-04-21 19:00 50.55153 22.60432 21546 ft 331 kts 39°
2026-04-21 19:01 50.56931 22.62794 22416 ft 329 kts 39°
2026-04-21 19:01 50.58658 22.65104 22956 ft 330 kts 39°
2026-04-21 19:01 50.60461 22.67303 23093 ft 330 kts 28°
2026-04-21 19:01 50.62633 22.68457 23129 ft 330 kts
2026-04-21 19:02 50.64932 22.68403 23130 ft 332 kts 352°
2026-04-21 19:02 50.67121 22.67226 23126 ft 335 kts 336°
2026-04-21 19:02 50.69171 22.65439 23118 ft 337 kts 333°
2026-04-21 19:02 50.71184 22.63538 23119 ft 337 kts 332°
2026-04-21 19:03 50.73198 22.61640 23114 ft 337 kts 333°
2026-04-21 19:03 50.75192 22.59800 23118 ft 337 kts 333°
2026-04-21 19:03 50.77224 22.57947 23125 ft 337 kts 333°
2026-04-21 19:03 50.79257 22.56098 23118 ft 337 kts 333°
2026-04-21 19:04 50.81307 22.54303 23120 ft 336 kts 337°
2026-04-21 19:04 50.83427 22.52751 23123 ft 335 kts 339°
2026-04-21 19:04 50.85577 22.51299 23118 ft 335 kts 340°
2026-04-21 19:04 50.87729 22.49872 23119 ft 336 kts 340°
2026-04-21 19:05 50.89885 22.48438 23121 ft 336 kts 340°
2026-04-21 19:05 50.92037 22.46991 23117 ft 336 kts 340°
2026-04-21 19:05 50.94189 22.45533 23123 ft 336 kts 340°
2026-04-21 19:05 50.96347 22.44060 23116 ft 336 kts 340°
2026-04-21 19:06 50.98495 22.42586 23115 ft 336 kts 340°
2026-04-21 19:06 51.00640 22.41107 23118 ft 336 kts 340°
2026-04-21 19:06 51.02782 22.39628 23114 ft 336 kts 340°
2026-04-21 19:06 51.04925 22.38144 23113 ft 336 kts 340°
2026-04-21 19:07 51.07063 22.36663 23125 ft 335 kts 340°
2026-04-21 19:07 51.09202 22.35178 23116 ft 335 kts 340°
2026-04-21 19:07 51.11316 22.33709 23107 ft 335 kts 340°
2026-04-21 19:07 51.13456 22.32220 23122 ft 335 kts 340°
2026-04-21 19:08 51.15591 22.30733 23104 ft 335 kts 340°
2026-04-21 19:08 51.17725 22.29245 23119 ft 335 kts 340°
2026-04-21 19:08 51.19861 22.27755 23102 ft 335 kts 340°
2026-04-21 19:08 51.21997 22.26262 23122 ft 335 kts 340°
2026-04-21 19:09 51.24128 22.24772 23118 ft 335 kts 340°
2026-04-21 19:09 51.26260 22.23280 23125 ft 335 kts 340°
2026-04-21 19:09 51.28395 22.21783 23125 ft 334 kts 340°
2026-04-21 19:09 51.30527 22.20288 23128 ft 334 kts 340°
2026-04-21 19:10 51.32658 22.18791 23122 ft 334 kts 340°
2026-04-21 19:10 51.34761 22.17313 23128 ft 335 kts 340°
2026-04-21 19:10 51.36893 22.15813 23125 ft 335 kts 340°
2026-04-21 19:10 51.39026 22.14310 23122 ft 335 kts 340°
2026-04-21 19:11 51.41160 22.12806 23127 ft 335 kts 340°
2026-04-21 19:11 51.43297 22.11298 23122 ft 335 kts 340°
2026-04-21 19:11 51.45428 22.09792 23120 ft 335 kts 340°
2026-04-21 19:11 51.47560 22.08284 23124 ft 335 kts 340°
2026-04-21 19:12 51.48970 22.07286 23126 ft 335 kts 340°
2026-04-21 19:12 51.51824 22.05264 23131 ft 335 kts 340°
2026-04-21 19:12 51.53954 22.03752 23128 ft 335 kts 339°
2026-04-21 19:12 51.55998 22.01912 23122 ft 339 kts 327°
2026-04-21 19:13 51.57825 21.99493 23133 ft 341 kts 323°
2026-04-21 19:13 51.59594 21.97021 23125 ft 341 kts 323°
2026-04-21 19:13 51.61379 21.94500 23126 ft 341 kts 323°
2026-04-21 19:13 51.63168 21.91975 23132 ft 341 kts 323°
2026-04-21 19:14 51.64959 21.89456 23127 ft 342 kts 323°
2026-04-21 19:14 51.66752 21.86942 23124 ft 342 kts 323°
2026-04-21 19:14 51.68536 21.84444 23128 ft 342 kts 323°
2026-04-21 19:14 51.70348 21.81911 23126 ft 342 kts 323°
2026-04-21 19:15 51.72145 21.79399 23126 ft 341 kts 323°
2026-04-21 19:15 51.73940 21.76889 23130 ft 341 kts 323°
2026-04-21 19:15 51.75715 21.74405 23131 ft 342 kts 323°
2026-04-21 19:15 51.77506 21.71897 23130 ft 340 kts 323°
2026-04-21 19:16 51.79271 21.69419 23120 ft 333 kts 323°
2026-04-21 19:16 51.81012 21.66974 23124 ft 330 kts 323°
2026-04-21 19:16 51.82749 21.64534 23131 ft 330 kts 323°
2026-04-21 19:16 51.84488 21.62092 23102 ft 332 kts 323°
2026-04-21 19:17 51.87963 21.57200 22531 ft 329 kts 323°
2026-04-21 19:17 51.89675 21.54784 22218 ft 325 kts 323°
2026-04-21 19:17 51.91355 21.52411 21875 ft 322 kts 323°
2026-04-21 19:18 51.93036 21.50034 21536 ft 319 kts 323°
2026-04-21 19:18 51.94702 21.47677 21198 ft 317 kts 323°
2026-04-21 19:18 51.96357 21.45333 20863 ft 314 kts 323°
2026-04-21 19:18 51.97997 21.43008 20549 ft 312 kts 323°
2026-04-21 19:19 51.99625 21.40698 20220 ft 310 kts 324°
2026-04-21 19:19 52.01240 21.38404 19902 ft 308 kts 324°
2026-04-21 19:19 52.02844 21.36124 19590 ft 306 kts 323°
2026-04-21 19:19 52.04442 21.33851 19269 ft 304 kts 324°
2026-04-21 19:20 52.06026 21.31593 18954 ft 302 kts 324°
2026-04-21 19:20 52.07605 21.29342 18644 ft 301 kts 324°
2026-04-21 19:20 52.09174 21.27102 18320 ft 300 kts 324°
2026-04-21 19:20 52.10738 21.24868 17965 ft 298 kts 324°
2026-04-21 19:21 52.12293 21.22644 17626 ft 296 kts 324°
2026-04-21 19:21 52.13830 21.20442 17331 ft 294 kts 323°
2026-04-21 19:21 52.15359 21.18252 17022 ft 291 kts 323°
2026-04-21 19:21 52.16878 21.16073 16712 ft 289 kts 323°
2026-04-21 19:22 52.18383 21.13912 16403 ft 288 kts 323°
2026-04-21 19:22 52.19882 21.11758 16097 ft 286 kts 323°
2026-04-21 19:22 52.21365 21.09625 15799 ft 284 kts 323°
2026-04-21 19:22 52.22844 21.07496 15498 ft 283 kts 323°
2026-04-21 19:23 52.24313 21.05380 15202 ft 281 kts 323°
2026-04-21 19:23 52.25776 21.03270 14896 ft 280 kts 323°
2026-04-21 19:23 52.27232 21.01168 14608 ft 279 kts 323°
2026-04-21 19:23 52.28684 20.99070 14314 ft 278 kts 323°
2026-04-21 19:24 52.30127 20.96984 14008 ft 277 kts 323°
2026-04-21 19:24 52.31558 20.94875 13686 ft 277 kts 317°
2026-04-21 19:24 52.32555 20.92152 13375 ft 285 kts 290°
2026-04-21 19:24 52.32744 20.88959 13123 ft 288 kts 270°
2026-04-21 19:25 52.32576 20.85714 12905 ft 287 kts 267°
2026-04-21 19:25 52.32364 20.82473 12750 ft 286 kts 267°
2026-04-21 19:25 52.32145 20.79218 12622 ft 290 kts 267°
2026-04-21 19:25 52.31921 20.75869 12509 ft 301 kts 266°
2026-04-21 19:26 52.31693 20.72448 12402 ft 302 kts 266°
2026-04-21 19:26 52.31468 20.69110 12361 ft 287 kts 266°
2026-04-21 19:26 52.31250 20.65953 12232 ft 273 kts 266°
2026-04-21 19:26 52.31036 20.62929 11938 ft 267 kts 266°
2026-04-21 19:27 52.30822 20.59905 11494 ft 268 kts 266°
2026-04-21 19:27 52.30611 20.56875 11061 ft 270 kts 266°
2026-04-21 19:27 52.30399 20.53812 10642 ft 270 kts 266°
2026-04-21 19:27 52.30190 20.50770 10221 ft 269 kts 266°
2026-04-21 19:28 52.29985 20.47742 9760 ft 269 kts 266°
2026-04-21 19:28 52.29781 20.44702 9244 ft 269 kts 266°
2026-04-21 19:28 52.29648 20.42688 8921 ft 269 kts 266°
2026-04-21 19:28 52.29387 20.38728 8388 ft 260 kts 266°
2026-04-21 19:29 52.29197 20.35843 7888 ft 252 kts 266°
2026-04-21 19:29 52.29013 20.33041 7384 ft 245 kts 266°
2026-04-21 19:29 52.28892 20.31185 7067 ft 242 kts 266°
2026-04-21 19:29 52.28715 20.28453 6642 ft 239 kts 266°
2026-04-21 19:30 52.28543 20.25786 6262 ft 234 kts 266°
2026-04-21 19:30 52.28374 20.23193 5887 ft 230 kts 267°
2026-04-21 19:30 52.28560 20.20674 5488 ft 222 kts 298°
2026-04-21 19:30 52.29525 20.18829 5169 ft 212 kts 332°
2026-04-21 19:31 52.30892 20.18277 4930 ft 202 kts
2026-04-21 19:31 52.32180 20.19121 4704 ft 201 kts 34°
2026-04-21 19:31 52.33324 20.20470 4513 ft 203 kts 36°
2026-04-21 19:31 52.34459 20.21889 4318 ft 206 kts 40°
2026-04-21 19:32 52.35463 20.23557 4125 ft 205 kts 46°
2026-04-21 19:32 52.36381 20.25193 4108 ft 189 kts 46°
2026-04-21 19:32 52.37234 20.26731 4081 ft 171 kts 46°
2026-04-21 19:32 52.37986 20.28102 4062 ft 161 kts 46°
2026-04-21 19:33 52.38725 20.29456 4061 ft 159 kts 46°
2026-04-21 19:33 52.39473 20.30828 3916 ft 165 kts 47°
2026-04-21 19:33 52.40239 20.32228 3724 ft 163 kts 47°
2026-04-21 19:33 52.40979 20.33618 3525 ft 161 kts 47°
2026-04-21 19:34 52.41674 20.35026 3304 ft 159 kts 62°
2026-04-21 19:34 52.41917 20.36754 3323 ft 157 kts 76°
2026-04-21 19:34 52.42144 20.38535 3297 ft 162 kts 72°
2026-04-21 19:34 52.42400 20.40358 3102 ft 164 kts 74°
2026-04-21 19:35 52.42626 20.42157 3016 ft 159 kts 73°
2026-04-21 19:35 52.43086 20.45522 2825 ft 141 kts 73°
2026-04-21 19:35 52.43278 20.47049 2686 ft 133 kts 73°
2026-04-21 19:36 52.43452 20.48505 2551 ft 132 kts 74°
2026-04-21 19:36 52.43620 20.49982 2407 ft 130 kts 75°
2026-04-21 19:36 52.43784 20.51442 2084 ft 132 kts 75°
2026-04-21 19:36 52.43934 20.52918 1771 ft 130 kts 76°
2026-04-21 19:37 52.44064 20.54383 1441 ft 130 kts 77°
2026-04-21 19:37 52.44183 20.55856 1108 ft 131 kts 78°
2026-04-21 19:37 52.44353 20.57334 972 ft 133 kts 76°
2026-04-21 19:37 52.44516 20.58843 858 ft 136 kts 79°
2026-04-21 19:38 52.44660 20.60386 720 ft 138 kts 78°
2026-04-21 19:38 52.44807 20.61921 548 ft 136 kts 79°
2026-04-21 19:38 52.44953 20.63436 368 ft 135 kts 79°
2026-04-21 19:38 52.45088 20.64826 337 ft 105 kts 81°
2026-04-21 19:39 52.45178 20.65773 338 ft 61 kts 81°
2026-04-21 19:39 52.45220 20.66224 336 ft 24 kts 81°
2026-04-21 19:39 52.45243 20.66480 333 ft 23 kts 81°
2026-04-21 19:39 52.45267 20.66737 333 ft 22 kts 82°
2026-04-21 19:40 52.45267 20.66968 334 ft 17 kts 129°
2026-04-21 19:40 52.45162 20.67040 335 ft 16 kts 173°
2026-04-21 19:40 52.45053 20.67068 336 ft 16 kts 172°
2026-04-21 19:40 52.44961 20.67039 333 ft 10 kts 241°
2026-04-21 19:41 52.44946 20.66930 336 ft 10 kts 262°
2026-04-21 19:41 52.44936 20.66820 336 ft 11 kts 261°
2026-04-21 19:41 52.44923 20.66680 335 ft 15 kts 261°
2026-04-21 19:41 52.44905 20.66487 334 ft 19 kts 261°
2026-04-21 19:42 52.44882 20.66243 336 ft 24 kts 261°
2026-04-21 19:42 52.44855 20.65956 337 ft 27 kts 261°
2026-04-21 19:42 52.44829 20.65676 337 ft 23 kts 262°
2026-04-21 19:42 52.44808 20.65608 334 ft 3 kts 213°
2026-04-21 19:43 52.44782 20.65584 337 ft 5 kts 207°
2026-04-21 19:43 52.44772 20.65575 336 ft 0 kts 207°